Home   Weather   Okayama   Past weeks
Flag for Japan

Past Weather in Okayama, Japan — Yesterday and Last 2 Weeks

Now
65 °F

Mild.


Feels Like: 65 °F
Forecast: 75 / 64 °F
Wind: 2 mph from North

Location: Takamatsu

Current Time: Apr 25, 2019 at 1:04:06 am

Latest Report: Apr 25, 2019 at 12:00 am


Visibility: N/A

Pressure: 29.74 "Hg

Humidity: 94%

Dew Point: 63 °F

Location of OkayamaLocation

Past Weather in Okayama — Graph

°F

Okayama Temperature Yesterday

Maximum temperature yesterday: 73 °F (at 12:00 pm)
Minimum temperature yesterday: 65 °F (at 11:00 pm)
Average temperature yesterday: 69 °F

High & Low Weather Summary for the Past Weeks

 TemperatureHumidityPressure
High80 °F (Apr 22, 3:00 pm)97% (Apr 14, 7:00 pm)30.23 "Hg (Apr 14, 7:00 pm)
Low42 °F (Apr 13, 5:00 am)24% (Apr 12, 3:00 pm)29.59 "Hg (Apr 10, 2:00 pm)
Average60 °F64%29.96 "Hg
* Reported Apr 9 11:00 pm — Apr 24 11:00 pm, Okayama. Weather by CustomWeather, © 2019

Note: Actual official high and low records may vary slightly from our data, if they occured in-between our weather recording intervals... More about our weather records

Advertising

Okayama Weather History for the Previous 24 Hours

Scroll right to see more
 ConditionsComfort  
Time TempWeatherWind HumidityBarometerVisibility
11:00 pm
Wed, Apr 24
65 °FMild.2 mph94%29.74 "HgN/A
10:00 pm66 °FMild.3 mph93%29.74 "HgN/A
9:00 pm68 °FOvercast.1 mph91%29.73 "Hg9 mi
8:00 pm68 °FMild.2 mph90%29.72 "HgN/A
7:00 pm67 °FMild.3 mph89%29.73 "HgN/A
6:00 pm68 °FLight rain. Overcast.5 mph88%29.72 "Hg9 mi
5:00 pm70 °FMild.7 mph80%29.73 "HgN/A
4:00 pm71 °FMild.10 mph76%29.74 "HgN/A
3:00 pm72 °FLight rain. Overcast.9 mph74%29.75 "Hg12 mi
2:00 pm72 °FMild.9 mph73%29.78 "HgN/A
1:00 pm73 °FMild.10 mph71%29.80 "HgN/A
12:00 pm73 °FOvercast.9 mph69%29.83 "Hg12 mi
11:00 am71 °FMild.8 mph73%29.85 "HgN/A
10:00 am70 °FMild.8 mph76%29.88 "HgN/A
9:00 am70 °FOvercast.7 mph72%29.88 "Hg12 mi
8:00 am69 °FMild.7 mph74%29.89 "HgN/A
7:00 am66 °FMild.3 mph82%29.90 "HgN/A
6:00 am66 °FLight rain. Overcast.3 mph85%29.90 "Hg12 mi
5:00 am65 °FMild.3 mph84%29.90 "HgN/A
4:00 am66 °FMild.3 mph76%29.91 "HgN/A
2:00 am67 °FMild.9 mph74%29.95 "HgN/A
1:00 am67 °FMild.9 mph77%29.96 "HgN/A
Weather by CustomWeather, © 2019

See weather overview